Wetbulb
60.67 61.20 61.24 58.33 55.33 55.28 52.45 49.41 48.89 47.74 47.21 47.46 47.28 47.54 47.28 47.65 47.90 49.47 50.66 56.67 59.42 59.10 60.04 61.64 63.58 62.13 62.12 62.80 63.31 63.96 65.33 64.62 65.41 66.25 66.04 65.61 66.00 65.54 66.05 66.57 66.87 66.87 67.11
59.47 52.95 53.84 53.74 51.73 49.24 48.10 46.26 45.09 44.70 44.08 44.32 44.52 44.82 44.15 42.80 44.61 46.15 48.40 47.86 55.60 54.94 58.13 59.41 58.65 58.36 58.67 60.32 61.40 60.77 60.67 60.74 60.85 61.18 61.45 62.22 62.92 64.22 64.27 64.60 65.69 65.38 66.08
53.49 52.50 51.40 49.85 47.29 45.88 45.05 43.29 42.95 43.25 42.25 42.78 41.00 42.72 42.83 41.88 44.42 42.97 44.88 45.38 47.60 51.08 54.49 54.52 55.15 55.35 56.36 57.67 57.81 58.48 58.56 58.22 58.41 59.16 59.47 59.55 59.67 60.30 61.33 62.67 64.40 65.34 64.63
51.52 49.83 48.30 45.48 44.02 43.01 42.71 41.43 41.03 41.15 40.28 39.47 39.18 41.12 40.40 41.64 42.00 40.12 41.88 43.04 44.64 43.94 47.68 50.65 51.74 51.94 53.96 54.43 55.89 56.28 56.33 56.28 57.13 57.94 58.02 57.87 58.85 59.33 60.57 61.35 61.79 62.35 62.90
47.26 44.94 44.06 43.18 42.14 41.44 40.68 40.35 39.37 39.12 38.62 39.09 40.72 41.20 38.80 40.69 39.83 39.66 39.08 39.95 41.66 40.36 42.40 45.76 48.36 48.51 49.92 51.49 52.74 53.88 54.22 54.48 54.41 55.06 56.05 56.42 56.80 57.51 58.06 58.58 59.00 59.56 60.43
43.43 42.36 41.88 41.57 41.06 40.14 39.29 38.40 37.67 38.01 38.59 37.47 41.24 40.47 37.64 40.87 37.43 36.92 37.78 38.97 38.26 38.07 40.40 39.01 39.93 41.14 47.45 48.78 49.65 51.32 51.99 51.95 52.35 54.09 53.82 54.03 55.00 55.58 56.27 56.84 56.86 57.20 57.85
41.69 40.82 40.54 40.21 39.70 38.19 37.06 37.46 37.42 36.87 37.21 37.46 36.13 36.59 37.43 37.76 36.39 37.20 37.24 36.20 36.71 38.16 38.26 38.98 40.16 40.00 39.50 45.22 46.04 48.50 49.14 50.45 51.64 51.97 52.50 53.32 53.86 54.63 55.08 55.72 56.21 55.93 56.61
41.00 40.64 39.34 38.46 37.71 36.99 35.99 35.42 35.58 35.35 35.51 36.64 34.27 33.78 31.81 34.02 36.07 38.11 35.61 36.81 35.11 36.88 37.50 38.85 38.57 38.60 38.06 36.39 40.32 45.66 46.71 49.31 49.90 50.71 51.22 51.68 52.68 53.27 54.07 54.56 55.06 55.07 55.44
39.95 39.20 38.16 37.32 36.37 35.77 34.67 34.17 33.94 33.52 32.60 33.87 34.95 32.53 28.53 28.20 31.61 33.92 34.77 34.08 35.62 34.20 35.95 36.61 37.86 38.01 37.37 35.80 39.07 40.16 44.79 46.08 48.25 50.13 51.20 51.56 51.58 52.11 52.92 53.47 53.87 54.31 54.53
38.21 38.34 37.45 36.32 35.45 35.03 33.60 33.64 34.92 32.81 32.41 31.04 33.25 36.17 33.19 31.98 28.68 27.35 31.92 34.11 32.91 34.95 33.23 33.93 36.35 36.29 36.21 35.77 39.17 41.62 43.38 45.14 47.18 48.81 49.86 50.32 50.59 51.12 51.81 51.83 52.47 52.98 53.09
36.78 36.87 36.16 35.02 34.42 34.19 32.92 32.36 31.76 31.05 31.86 30.62 30.96 31.13 30.03 30.83 30.39 28.14 26.18 28.27 32.67 33.67 33.85 34.41 33.92 35.45 34.66 35.46 35.13 38.09 43.09 44.07 46.11 47.22 48.33 48.94 49.34 49.93 50.61 50.96 51.04 51.12 51.19
35.16 34.99 35.22 33.92 33.25 32.90 32.22 31.88 31.18 30.73 30.22 30.15 29.82 29.22 29.20 28.08 27.53 26.32 25.94 27.46 27.45 30.00 31.25 33.52 34.08 33.31 33.62 34.12 37.77 41.01 41.65 42.73 44.17 45.26 46.38 47.45 47.81 48.16 48.48 48.88 49.25 49.48 49.82
33.48 33.08 33.20 32.26 31.89 31.81 31.99 31.31 30.47 29.89 29.76 28.81 28.28 28.48 29.52 29.18 29.38 28.89 27.66 26.48 25.81 28.60 29.20 30.70 32.08 32.48 34.96 33.46 33.61 39.57 40.37 41.29 41.76 43.18 45.26 46.42 45.64 45.57 45.49 46.23 47.32 47.65 48.22
32.93 32.62 32.05 31.63 31.30 31.35 30.92 30.18 29.85 29.55 29.88 28.60 27.82 27.87 28.33 28.85 29.25 28.65 27.60 26.02 23.55 25.30 27.50 26.55 30.36 30.95 31.48 31.85 34.85 39.41 35.22 39.20 40.12 41.52 43.11 43.63 43.13 42.68 42.97 43.66 44.70 45.46 46.26
34.39 31.72 31.18 30.82 30.47 30.46 30.29 29.55 28.72 28.60 28.35 28.19 27.97 27.70 27.29 28.17 28.49 28.31 28.36 28.16 25.26 21.57 22.83 26.57 26.72 30.70 30.59 31.71 34.10 34.07 33.36 37.11 39.27 40.04 40.65 40.49 40.39 40.77 41.04 41.64 42.15 42.76 43.48
31.39 31.01 30.55 30.10 30.00 29.88 29.63 28.79 28.38 28.91 28.09 28.31 29.60 27.31 26.60 27.44 27.73 28.16 28.16 28.40 28.06 25.92 22.81 27.99 29.00 30.48 31.15 32.67 33.73 33.87 33.28 37.09 38.15 38.96 38.86 38.79 38.88 38.89 39.46 40.14 40.87 41.51 41.99
30.54 30.31 30.08 29.76 29.43 29.19 29.00 28.03 27.76 28.77 28.02 27.61 27.37 26.82 27.23 27.81 27.37 27.96 27.97 28.22 27.63 27.35 24.46 27.13 29.60 30.69 30.09 30.27 31.39 32.14 33.15 33.13 33.00 37.00 37.47 37.41 37.36 37.54 38.37 38.95 39.11 39.64 40.19
30.01 29.67 29.58 29.24 28.93 29.00 28.48 27.51 27.12 27.52 27.22 26.67 26.94 26.32 26.68 30.35 27.17 26.95 27.00 26.84 27.23 27.76 26.50 25.12 28.09 28.58 28.54 29.82 30.14 30.81 31.82 31.85 30.35 33.34 35.35 35.90 36.70 37.27 37.58 37.64 37.90 38.33 38.62
29.19 29.15 28.90 28.30 28.38 28.65 28.03 27.77 27.67 27.62 27.25 26.92 26.68 26.24 26.60 26.73 26.08 26.27 26.46 26.67 27.60 29.60 28.76 26.13 25.35 28.30 28.88 30.06 30.19 28.81 27.63 27.66 29.09 32.41 34.34 34.66 35.59 36.31 36.56 36.87 37.10 37.32 37.68
28.46 27.98 27.88 28.09 28.06 27.86 28.12 28.44 28.81 27.90 27.18 27.64 27.50 27.14 26.89 26.69 26.07 26.41 27.51 27.77 29.44 27.43 27.42 26.78 27.43 28.24 27.99 30.02 28.09 24.70 23.89 25.99 25.61 28.58 31.08 32.93 33.96 34.09 34.78 35.15 35.32 35.05 34.88
27.72 27.51 27.89 27.39 26.92 27.63 30.43 30.65 29.92 28.16 26.54 25.61 25.69 26.00 27.46 29.60 33.58 32.75 30.57 29.42 28.33 27.35 27.54 28.45 26.34 27.32 24.06 23.78 22.57 24.10 23.50 24.77 25.80 27.92 25.27 25.99 26.39 27.25 27.94 31.34 31.79 32.88 33.26
26.98 26.58 25.89 25.84 25.33 28.78 33.18 35.29 33.85 28.57 25.73 24.86 24.82 26.01 26.37 29.81 29.47 33.67 33.68 34.02 32.87 29.40 28.00 27.70 24.48 23.04 22.32 22.64 23.87 24.54 25.01 21.87 19.76 26.75 24.42 24.55 26.13 24.83 26.08 26.83 31.39 32.69 33.72
24.79 25.01 24.78 24.63 24.19 23.71 33.26 34.34 34.63 27.73 25.29 24.74 25.15 25.49 26.11 29.08 30.11 27.60 30.87 33.39 33.21 33.80 33.40 27.58 23.10 22.31 22.53 25.25 26.31 23.70 23.42 23.37 22.51 24.87 24.85 22.37 24.48 22.86 25.39 26.87 31.07 32.05 33.02
24.13 23.85 24.41 23.94 22.57 25.01 32.37 33.30 33.88 26.31 25.05 24.84 25.02 25.71 25.34 25.90 26.80 29.87 30.39 30.67 27.56 26.03 25.86 26.42 25.80 26.88 27.07 26.74 26.08 25.86 25.21 25.20 25.17 24.71 24.95 19.48 22.82 21.54 23.99 24.89 30.34 31.79 32.61
23.41 23.68 22.92 22.40 21.31 22.09 30.96 32.39 31.79 26.05 24.75 24.80 25.92 26.17 26.63 28.39 32.04 34.49 29.82 25.97 24.20 24.21 28.13 30.98 31.45 30.65 30.38 30.57 29.61 26.55 22.80 20.90 19.11 20.96 23.98 21.58 21.72 21.63 23.01 23.49 25.65 31.07 32.27
22.88 22.53 22.44 21.95 25.19 21.52 28.74 32.11 31.53 27.63 24.92 26.40 26.40 27.11 32.12 30.90 33.47 33.49 28.04 25.08 20.67 22.28 25.90 25.30 23.01 24.36 26.36 25.95 29.50 26.02 24.22 20.00 19.52 18.38 22.85 21.15 21.79 23.02 20.59 24.27 24.29 25.46 25.78
MSLP
1013.69 1013.42 1013.22 1013.56 1013.59 1013.85 1014.04 1014.23 1014.25 1014.16 1014.12 1013.92 1013.77 1013.73 1013.59 1013.42 1013.13 1012.79 1012.52 1012.08 1011.76 1011.47 1011.13 1010.77 1010.48 1010.32 1010.01 1009.66 1009.35 1009.24 1009.15 1009.04 1008.79 1008.62 1008.66 1008.63 1008.60 1008.52 1008.44 1008.44 1008.40 1008.43 1008.43
1013.64 1013.64 1013.70 1013.85 1014.13 1014.45 1014.58 1014.60 1014.58 1014.61 1014.64 1014.38 1014.13 1013.89 1013.87 1013.60 1013.34 1013.04 1012.77 1012.51 1012.14 1011.90 1011.49 1011.22 1011.08 1010.83 1010.49 1010.06 1009.67 1009.56 1009.49 1009.26 1008.98 1008.85 1008.65 1008.47 1008.38 1008.24 1007.97 1007.85 1007.88 1007.83 1007.83
1013.65 1013.85 1014.12 1014.35 1014.80 1014.83 1014.80 1014.73 1014.73 1014.75 1014.80 1014.63 1014.38 1014.11 1013.95 1013.78 1013.54 1013.28 1013.06 1012.83 1012.61 1012.32 1012.00 1011.76 1011.50 1011.28 1010.93 1010.56 1010.18 1009.87 1009.72 1009.50 1009.24 1008.93 1008.71 1008.59 1008.38 1008.15 1007.99 1007.74 1007.51 1007.33 1007.24
1014.09 1014.11 1014.39 1014.84 1015.22 1015.00 1015.01 1015.13 1015.19 1015.18 1015.27 1015.08 1014.69 1014.26 1014.25 1013.98 1013.72 1013.48 1013.36 1013.15 1013.01 1012.83 1012.57 1012.24 1012.02 1011.71 1011.35 1010.98 1010.48 1010.25 1009.96 1009.64 1009.23 1008.92 1008.74 1008.54 1008.12 1007.85 1007.80 1007.70 1007.44 1007.24 1007.00
1014.59 1014.56 1014.98 1015.37 1015.40 1015.37 1015.53 1015.68 1015.62 1015.74 1015.89 1015.44 1014.88 1014.32 1014.30 1014.15 1014.00 1013.73 1013.76 1013.55 1013.41 1013.19 1013.02 1012.76 1012.52 1012.21 1011.85 1011.40 1010.98 1010.58 1010.23 1009.89 1009.57 1009.14 1008.79 1008.42 1008.18 1007.92 1007.71 1007.55 1007.33 1007.15 1006.90
1014.98 1014.96 1015.35 1015.68 1015.68 1015.87 1016.15 1016.08 1016.12 1016.16 1016.19 1016.05 1015.24 1014.66 1014.41 1014.20 1014.14 1014.00 1014.00 1013.73 1013.59 1013.39 1013.23 1012.94 1012.72 1012.45 1012.05 1011.63 1011.30 1010.75 1010.29 1009.84 1009.28 1008.86 1008.73 1008.46 1008.14 1007.78 1007.53 1007.22 1007.02 1006.89 1006.64
1015.30 1015.38 1015.85 1016.12 1016.26 1016.51 1016.74 1016.66 1016.64 1016.70 1016.49 1016.24 1015.86 1015.12 1014.44 1014.23 1014.12 1013.98 1013.90 1013.80 1013.55 1013.44 1013.26 1012.93 1012.76 1012.41 1012.13 1011.71 1011.36 1010.77 1010.35 1009.78 1009.12 1009.00 1008.66 1008.19 1007.90 1007.60 1007.25 1006.91 1006.56 1006.45 1006.37
1015.63 1015.89 1016.26 1016.61 1016.78 1016.93 1017.03 1017.25 1017.30 1017.22 1017.08 1016.78 1016.83 1016.42 1015.92 1015.02 1014.33 1013.61 1013.81 1013.76 1013.68 1013.54 1013.08 1012.85 1012.70 1012.33 1012.08 1011.74 1011.27 1010.80 1010.41 1009.80 1009.48 1009.10 1008.59 1008.08 1007.70 1007.37 1006.96 1006.54 1006.17 1005.95 1005.86
1016.10 1016.31 1016.61 1016.90 1017.18 1017.32 1017.58 1017.65 1017.66 1017.70 1017.79 1017.33 1017.19 1017.21 1016.93 1016.72 1015.68 1014.29 1013.89 1013.87 1013.68 1013.61 1013.41 1013.07 1012.64 1012.23 1011.98 1011.63 1011.23 1010.82 1010.34 1009.89 1009.42 1008.80 1008.15 1007.88 1007.53 1007.07 1006.55 1006.09 1005.68 1005.34 1004.99
1016.50 1016.69 1016.96 1017.23 1017.46 1017.70 1017.78 1017.81 1017.79 1017.85 1017.88 1018.05 1017.57 1017.38 1017.48 1017.46 1016.95 1015.31 1014.39 1013.87 1013.85 1013.60 1013.26 1012.88 1012.41 1012.12 1011.71 1011.40 1011.01 1010.64 1010.15 1009.62 1009.01 1008.43 1008.06 1007.66 1007.20 1006.70 1006.23 1005.84 1005.36 1004.83 1004.41
1016.91 1017.14 1017.31 1017.45 1017.70 1017.95 1018.01 1017.97 1017.96 1017.95 1017.97 1018.11 1018.11 1017.93 1017.60 1017.22 1017.04 1017.03 1014.99 1013.93 1013.63 1013.30 1012.98 1012.53 1012.18 1011.68 1011.41 1011.00 1010.75 1010.33 1009.77 1009.43 1008.87 1008.49 1007.96 1007.44 1006.94 1006.39 1005.82 1005.32 1004.91 1004.47 1004.07
1017.37 1017.51 1017.63 1017.72 1017.88 1018.11 1018.13 1018.09 1018.08 1018.07 1018.10 1018.06 1018.07 1018.04 1017.92 1017.83 1017.44 1017.19 1016.15 1014.98 1014.06 1013.09 1012.73 1012.32 1011.79 1011.43 1011.02 1010.72 1010.31 1009.80 1009.47 1009.11 1008.65 1008.16 1007.62 1007.03 1006.51 1005.97 1005.52 1005.09 1004.51 1003.91 1003.41
1017.61 1017.84 1017.86 1018.04 1018.19 1018.20 1018.15 1018.15 1018.07 1018.05 1018.06 1018.07 1018.00 1017.86 1017.58 1017.48 1017.31 1016.95 1016.34 1015.18 1013.99 1013.12 1012.46 1011.97 1011.60 1011.27 1010.75 1010.41 1010.00 1009.48 1009.08 1008.71 1008.26 1007.75 1007.15 1006.50 1006.00 1005.50 1005.13 1004.75 1004.09 1003.45 1002.88
1017.66 1017.80 1018.08 1018.20 1018.22 1018.25 1018.23 1018.16 1018.02 1018.05 1017.91 1017.75 1017.64 1017.59 1017.47 1017.20 1017.00 1016.89 1016.66 1015.89 1013.82 1012.94 1012.30 1011.75 1011.36 1011.01 1010.64 1010.26 1009.83 1009.23 1008.87 1008.38 1007.78 1007.21 1006.58 1005.99 1005.41 1005.00 1004.47 1003.89 1003.19 1002.48 1001.94
1017.82 1018.06 1018.21 1018.37 1018.40 1018.33 1018.19 1018.08 1018.05 1017.96 1017.73 1017.47 1017.34 1017.14 1017.07 1016.76 1016.58 1016.43 1016.24 1016.04 1015.51 1013.39 1011.54 1011.18 1011.13 1010.79 1010.34 1009.83 1009.31 1008.79 1008.35 1007.96 1007.33 1006.69 1006.10 1005.58 1004.96 1004.20 1003.60 1002.96 1002.31 1001.71 1001.06
1018.10 1018.22 1018.39 1018.41 1018.39 1018.33 1018.18 1018.06 1017.96 1017.65 1017.52 1017.23 1016.97 1016.83 1016.59 1016.30 1016.11 1015.88 1015.65 1015.37 1015.11 1014.42 1012.39 1011.37 1010.43 1010.16 1009.72 1009.20 1008.69 1008.03 1007.62 1007.15 1006.69 1006.24 1005.65 1004.96 1004.11 1003.44 1002.67 1001.92 1001.30 1000.81 1000.22
1018.20 1018.34 1018.40 1018.38 1018.33 1018.18 1018.06 1018.00 1017.74 1017.38 1017.32 1017.09 1016.68 1016.47 1016.20 1015.85 1015.60 1015.31 1015.02 1014.73 1014.35 1013.94 1012.82 1010.29 1010.17 1009.49 1008.92 1008.39 1007.74 1007.21 1006.85 1006.63 1006.40 1005.55 1004.69 1003.85 1003.03 1002.27 1001.40 1000.76 1000.36 999.81 999.24
1018.32 1018.46 1018.49 1018.42 1018.31 1018.18 1018.08 1017.88 1017.70 1017.35 1017.12 1016.85 1016.37 1016.08 1015.70 1015.17 1015.05 1014.72 1014.37 1014.03 1013.56 1013.04 1012.50 1011.09 1009.65 1008.87 1008.30 1007.46 1006.87 1006.48 1006.22 1005.56 1005.13 1004.56 1003.63 1002.75 1001.89 1001.01 1000.42 1000.04 999.45 998.85 998.30
1018.52 1018.58 1018.55 1018.51 1018.37 1018.29 1018.03 1017.65 1017.39 1017.06 1016.75 1016.41 1016.02 1015.67 1015.23 1014.92 1014.54 1014.08 1013.65 1013.17 1012.61 1012.00 1011.46 1010.74 1009.36 1008.48 1007.58 1006.94 1006.22 1006.04 1005.19 1004.48 1004.05 1003.36 1002.49 1001.94 1001.13 1000.40 999.72 998.94 998.18 997.62 997.12
1018.63 1018.66 1018.62 1018.58 1018.52 1018.24 1017.77 1017.38 1017.03 1016.75 1016.41 1016.01 1015.61 1015.22 1014.84 1014.50 1014.07 1013.46 1012.80 1012.18 1011.63 1011.20 1010.53 1009.80 1008.78 1007.86 1007.06 1006.52 1006.12 1005.23 1003.89 1003.65 1002.93 1002.34 1001.68 1001.07 1000.35 999.69 998.70 998.06 997.22 996.51 996.15
1018.68 1018.73 1018.76 1018.62 1018.38 1017.99 1017.52 1016.95 1016.63 1016.38 1016.09 1015.85 1015.51 1015.03 1014.46 1013.92 1013.26 1012.69 1011.99 1011.37 1010.93 1010.29 1009.63 1008.86 1008.01 1007.27 1006.94 1005.90 1005.48 1004.64 1003.74 1002.72 1002.10 1001.47 1000.87 999.97 999.34 998.69 998.11 997.43 996.70 995.84 995.27
1018.82 1018.95 1018.83 1018.59 1018.25 1017.83 1017.25 1016.65 1016.26 1016.04 1015.98 1015.73 1015.23 1014.53 1013.97 1013.39 1012.84 1012.14 1011.58 1010.93 1010.25 1009.36 1008.78 1008.35 1007.98 1007.15 1006.18 1005.77 1004.93 1004.14 1003.21 1002.38 1000.59 1000.62 999.91 998.96 998.49 997.44 996.80 996.16 995.39 994.60 993.64
1019.02 1018.87 1018.71 1018.47 1018.10 1017.66 1017.00 1016.44 1016.04 1015.87 1015.76 1015.33 1014.79 1014.21 1013.60 1012.97 1012.36 1011.82 1010.97 1010.17 1009.56 1009.39 1008.72 1008.12 1007.41 1006.72 1005.86 1005.15 1004.35 1003.43 1002.74 1001.81 1000.53 999.41 999.38 997.87 997.40 996.39 995.63 994.79 993.93 993.14 992.31
1019.04 1018.96 1018.68 1018.35 1018.08 1017.57 1016.89 1016.29 1015.78 1015.50 1015.27 1014.85 1014.39 1013.88 1013.30 1012.60 1012.04 1011.03 1010.17 1009.69 1009.40 1008.89 1008.34 1007.64 1006.85 1006.03 1005.23 1004.33 1003.65 1002.84 1002.08 1000.98 999.84 998.93 998.67 997.23 996.46 995.37 994.46 993.62 992.62 991.67 990.89
1019.12 1018.91 1018.67 1018.39 1018.06 1017.42 1016.78 1016.11 1015.44 1015.09 1014.74 1014.35 1013.81 1013.30 1012.79 1012.16 1011.34 1010.25 1009.64 1009.29 1008.74 1008.14 1007.46 1006.82 1006.05 1005.43 1004.54 1003.71 1003.01 1002.13 1001.36 1000.60 998.96 997.97 997.62 996.81 995.37 994.41 993.42 991.97 991.08 990.27 989.61
1019.10 1018.92 1018.67 1018.22 1017.78 1017.34 1016.67 1015.88 1015.15 1014.67 1014.20 1013.53 1013.06 1012.54 1012.10 1011.47 1010.37 1009.84 1009.25 1008.81 1008.46 1007.56 1006.86 1006.15 1005.65 1004.85 1004.10 1003.22 1002.36 1001.86 1001.17 1000.24 999.08 997.25 996.69 996.27 994.83 994.06 991.96 990.76 989.92 989.41 988.63
Wind_Speed
2 3 4 4 4 4 4 4 4 5 5 6 5 6 6 6 6 3 3 12 15 17 16 15 16 18 19 18 18 17 17 19 17 12 11 11 12 15 19 22 24 26 26
4 4 4 5 5 4 4 4 4 5 5 4 6 6 5 5 5 6 4 5 15 18 17 18 17 18 19 18 19 19 17 17 16 15 14 14 14 16 13 13 16 19 23
6 5 4 5 4 4 4 4 5 5 5 5 6 5 5 6 5 6 5 4 6 14 17 19 19 19 19 19 19 18 18 18 18 16 15 16 16 16 16 15 14 14 16
5 5 5 5 4 4 4 5 4 4 5 5 5 5 4 4 5 7 5 5 5 6 9 19 19 19 19 20 18 18 18 17 17 16 15 16 17 15 16 16 16 17 17
6 6 5 4 5 5 5 4 4 4 4 6 6 5 4 2 4 5 6 6 6 5 5 12 16 16 18 18 18 18 18 18 18 17 16 16 15 15 16 17 17 18 19
6 6 5 6 5 5 5 4 5 4 2 4 5 7 4 1 2 4 4 4 5 6 5 5 5 6 17 17 19 20 20 21 19 17 17 18 18 18 19 18 18 20 21
6 7 5 5 5 5 4 5 3 5 3 6 3 5 3 1 2 4 3 3 5 5 5 6 6 5 5 16 19 22 22 21 17 18 20 20 19 21 21 21 21 19 21
6 6 6 5 6 4 6 6 5 3 3 4 3 1 5 6 3 12 4 4 6 4 7 8 8 6 5 4 12 20 21 17 18 21 21 21 21 22 23 23 24 22 23
6 6 6 5 5 4 4 3 4 5 3 3 5 3 4 3 6 3 5 2 10 4 7 6 7 6 6 5 10 11 16 18 22 22 21 22 23 25 25 26 27 28 26
6 6 6 6 5 3 5 3 4 3 2 2 3 3 1 3 4 7 3 8 3 9 6 5 7 5 6 5 11 13 16 21 24 23 23 25 26 27 28 28 31 31 29
6 6 6 6 5 4 3 4 4 4 2 1 1 2 2 3 4 3 11 6 8 7 7 7 5 7 6 6 5 7 20 23 20 24 27 29 29 29 30 30 31 32 33
4 5 5 5 4 4 3 3 3 4 3 2 1 2 1 2 3 3 6 11 12 8 5 9 9 5 5 5 8 17 19 21 26 29 28 28 29 29 29 31 33 33 33
2 3 3 4 3 2 4 4 4 4 3 3 3 3 2 3 2 3 5 10 11 11 7 4 6 5 6 6 5 15 20 27 26 27 29 29 30 29 30 32 33 34 34
3 3 3 3 4 4 4 4 2 3 3 4 5 4 3 3 2 2 4 10 15 9 10 7 3 4 5 4 9 23 14 24 27 28 29 30 30 32 33 33 34 34 34
3 3 3 3 3 4 4 5 3 5 4 3 5 5 3 3 3 4 4 5 7 12 14 5 5 6 5 6 11 12 11 18 26 27 27 30 33 34 35 37 36 37 36
3 3 3 4 4 5 5 4 4 5 5 4 4 5 4 3 4 4 4 5 6 9 13 12 10 10 8 8 12 15 13 24 24 26 29 32 34 36 36 36 34 35 35
3 4 4 4 5 6 6 5 5 6 6 6 6 5 6 5 4 5 5 6 7 7 12 15 12 12 13 13 13 12 11 8 12 27 30 34 33 32 33 31 33 33 34
4 4 4 5 6 6 6 6 6 6 6 7 7 6 7 5 6 6 5 8 8 9 9 16 15 13 14 15 14 9 9 10 11 20 31 31 31 32 31 30 31 32 32
4 5 5 6 6 6 6 6 6 6 7 7 7 6 7 6 7 6 7 8 9 8 9 11 14 13 13 11 12 11 13 11 10 23 28 28 29 29 30 34 34 34 33
5 5 5 5 5 6 6 6 6 6 7 6 7 7 8 8 9 10 8 10 9 10 11 11 13 11 12 10 9 11 14 10 11 12 17 20 28 31 31 31 32 33 32
5 5 5 5 5 5 5 7 6 6 6 7 7 7 7 11 20 19 12 12 13 12 12 10 13 9 12 11 13 11 13 12 11 10 11 12 11 11 13 23 26 30 30
5 4 4 5 6 5 14 16 13 5 6 6 8 8 7 13 12 22 24 28 24 16 16 7 10 13 15 13 12 12 11 14 15 10 8 14 11 12 12 11 24 30 31
3 5 6 5 6 6 15 16 17 2 5 6 8 9 9 9 16 11 20 26 23 20 13 14 16 14 15 14 14 15 15 13 15 13 12 15 11 13 12 13 28 31 32
4 4 5 6 6 6 16 17 18 4 6 7 8 10 10 12 12 18 16 9 12 9 11 11 12 14 14 16 16 14 15 15 12 12 10 15 11 14 13 12 29 32 31
3 4 4 6 6 7 16 18 16 6 6 9 9 9 10 12 20 27 14 13 12 13 15 22 23 26 29 27 23 12 10 12 14 13 10 12 12 13 13 14 14 27 26
4 4 6 5 10 7 15 18 16 7 7 8 7 7 15 18 26 25 16 13 12 15 13 12 12 15 18 17 23 13 10 11 13 14 8 10 12 10 10 10 8 10 11
Wind_Direction
122 91 77 67 52 40 47 37 29 25 18 8 11 12 7 2 348 351 353 357 24 30 20 20 28 22 15 14 17 15 24 22 13 360 344 328 314 296 280 274 270 266 261
108 86 71 70 56 50 42 44 38 33 18 0 355 356 4 352 1 10 4 360 24 24 23 30 20 18 14 11 18 9 5 4 1 358 358 356 357 353 328 297 287 287 278
92 86 78 66 49 43 51 39 33 32 20 357 350 344 2 357 13 15 13 7 8 17 22 19 16 15 11 11 3 3 1 358 349 347 347 344 336 339 334 335 327 311 299
82 88 84 65 47 48 44 41 25 22 10 359 334 329 353 354 22 25 18 9 11 15 12 15 14 12 11 3 1 359 355 348 350 349 349 343 341 338 342 339 338 330 320
79 85 75 67 51 49 39 26 28 39 14 350 327 316 346 344 28 13 20 7 18 6 0 4 7 7 4 359 359 353 351 349 345 338 339 337 334 330 327 323 320 318 316
77 79 69 58 50 51 32 20 28 8 34 337 314 313 321 282 20 29 15 4 8 10 350 349 351 344 354 358 355 347 342 338 333 342 333 326 320 318 314 308 307 306 304
73 73 69 60 52 60 50 30 3 12 337 350 337 326 325 289 267 5 358 357 12 359 347 355 347 334 331 354 349 342 339 332 330 333 327 322 318 314 309 302 299 299 302
75 78 79 68 56 55 40 35 35 352 347 8 340 301 349 329 330 327 347 355 355 337 347 341 328 323 329 326 333 335 334 326 330 322 316 311 311 308 304 301 298 295 296
78 81 76 74 65 64 53 40 34 43 357 330 25 70 349 305 320 315 315 347 336 326 323 306 300 308 307 311 325 320 320 323 321 315 317 318 313 308 304 301 297 296 292
77 78 79 77 71 60 51 23 37 37 69 22 326 36 219 240 312 319 295 313 301 314 293 291 293 295 292 295 298 309 319 321 318 320 318 315 310 307 304 301 297 296 290
74 74 79 75 68 57 50 45 26 22 29 34 14 321 290 261 246 272 302 309 305 308 300 288 279 296 281 292 284 290 317 316 312 309 309 308 304 302 301 300 297 294 291
78 67 71 70 62 51 37 27 18 19 8 359 320 312 262 293 291 280 286 304 297 306 306 300 288 279 276 279 292 316 312 306 308 307 304 301 301 299 300 299 294 288 286
83 67 64 55 47 28 27 22 18 359 339 335 316 301 258 263 266 275 302 305 301 304 292 266 275 280 297 301 295 311 305 305 303 301 302 299 301 299 300 296 291 289 284
112 81 78 60 34 22 14 10 7 333 315 313 312 299 277 278 267 261 298 311 309 300 301 288 270 275 274 279 273 298 297 294 297 296 298 299 299 299 295 293 290 288 287
108 95 66 43 22 6 3 2 341 320 314 302 293 282 262 266 258 259 257 277 287 306 305 308 299 299 268 267 273 282 281 279 287 290 294 297 296 293 292 289 288 284 283
81 71 44 27 9 359 352 351 321 306 311 302 296 293 281 255 270 263 269 273 266 278 290 307 300 295 287 286 281 286 284 284 287 290 290 289 289 291 289 288 289 282 282
68 47 26 13 3 349 349 335 321 306 321 301 295 281 279 270 267 286 280 271 269 266 278 295 297 304 297 288 283 279 275 283 273 279 286 288 291 289 285 286 289 288 281
54 35 19 11 357 348 330 326 317 312 300 297 291 285 277 286 280 269 270 278 276 275 274 284 295 299 295 297 295 296 279 277 274 278 285 289 288 290 293 294 290 291 284
47 28 23 10 349 334 319 314 301 293 291 286 284 280 274 272 274 273 276 282 277 274 282 288 289 290 292 298 300 297 292 288 281 284 289 291 288 291 290 286 287 284 285
48 27 12 353 340 316 308 300 294 295 291 294 295 286 275 272 279 286 280 284 295 295 292 288 286 289 292 308 286 299 298 295 292 287 288 287 285 287 288 291 289 290 290
41 20 358 341 334 328 329 324 317 308 312 312 303 293 291 291 309 311 307 311 302 298 296 292 294 304 309 312 300 300 291 296 292 289 284 289 283 281 279 282 279 282 282
19 1 353 346 338 335 327 335 338 338 336 310 313 308 293 305 299 307 310 305 302 301 299 308 312 303 299 297 297 296 298 302 298 279 277 291 286 284 279 274 277 280 280
350 356 349 341 324 316 329 333 332 351 310 302 309 310 307 305 306 299 291 294 296 324 314 313 299 292 296 295 298 299 296 289 290 296 296 288 293 284 282 279 284 283 281
358 337 328 328 322 314 333 332 327 308 296 288 285 291 291 296 293 299 307 334 312 301 297 301 294 294 292 302 298 301 296 290 287 289 286 285 291 282 285 279 281 283 284
334 332 323 321 319 305 327 328 329 307 286 279 281 281 285 294 299 315 326 319 315 309 307 305 309 310 306 308 306 304 302 302 297 297 299 288 290 287 286 281 274 278 281
336 336 319 314 319 312 315 327 330 310 297 299 297 283 301 314 316 325 327 325 322 307 309 317 315 309 304 296 305 304 299 293 295 298 295 295 294 299 295 280 279 279 276